Theta_e
318 318 318 318 318 318 318 318 318 319 319 319 319 319 319 319 319 319 319 319 318 318 318 318 318 318 319 319 319 319 318 315 312 310 309 312 320 328 334 334 336 335 343 342 339 330 324 328 330 338 337 335 335 334 343 341 341 337 326 323 318 324 321 327 326 327 332 328 330 334 336 331 328 334 335 338 335 335 334 333 336 339 339 341 343 345 345 346
318 318 318 318 318 318 318 318 318 318 319 319 319 319 319 319 319 319 319 318 318 318 318 318 318 318 318 318 319 319 317 314 310 310 310 317 328 331 336 336 341 340 344 334 328 323 320 324 328 335 332 328 339 333 342 336 341 330 328 325 319 324 328 334 333 334 331 330 333 335 336 334 332 334 334 330 329 331 330 333 335 335 339 342 344 344 344 346
318 318 318 318 317 317 318 318 318 318 318 319 319 319 319 318 318 318 318 318 318 318 317 317 318 318 318 319 318 320 316 310 311 308 311 327 330 333 336 340 343 341 331 328 328 324 319 325 329 332 331 327 333 331 339 335 337 334 327 323 325 330 332 334 335 334 340 335 333 333 333 335 335 334 336 330 328 329 327 328 331 332 332 337 341 342 343 344
318 318 318 318 317 317 318 318 318 318 318 318 319 318 318 318 318 318 318 317 317 317 317 317 318 318 318 319 319 318 313 311 302 308 320 332 332 338 336 342 344 342 333 331 329 324 322 328 328 332 328 327 329 337 332 335 331 333 330 324 326 332 331 333 337 338 338 338 334 333 335 333 336 336 335 331 326 327 329 332 331 331 333 337 340 341 342 343
318 318 317 318 317 318 318 318 318 318 318 318 318 318 318 318 318 317 317 317 317 317 317 317 318 318 318 319 319 318 312 298 300 315 322 344 337 339 338 341 345 338 333 326 324 321 323 326 327 330 329 325 329 332 331 335 336 332 329 332 332 334 330 336 338 340 338 340 335 333 331 332 336 335 334 331 325 324 329 334 336 336 337 338 338 340 342 342
318 318 318 317 317 318 318 318 318 318 318 317 317 318 317 317 317 317 317 317 317 317 317 317 318 318 319 319 318 315 303 293 305 310 335 351 339 341 340 344 344 332 326 323 319 318 322 324 327 326 327 328 327 324 331 331 337 325 331 332 334 335 333 338 338 339 339 336 334 333 336 337 333 331 334 333 332 333 336 337 339 339 340 340 341 341 340 340
318 317 317 317 317 317 317 317 317 317 317 317 317 317 317 317 317 316 316 316 316 316 317 317 318 318 318 318 314 311 299 303 309 311 352 351 340 342 343 346 340 326 324 320 318 315 321 322 327 326 327 325 329 327 331 332 335 331 327 330 332 338 335 339 337 339 337 336 335 339 341 334 331 327 333 331 334 336 338 341 341 341 342 342 340 341 340 341
317 317 317 317 317 317 317 317 317 317 317 317 317 317 317 317 316 316 316 316 316 316 317 317 318 318 319 314 312 302 300 302 308 320 349 344 337 339 346 336 321 325 321 319 316 314 321 322 324 329 327 325 325 327 331 331 333 328 327 333 333 336 337 338 339 338 339 338 339 338 334 334 335 332 332 331 334 337 339 341 341 341 341 341 341 341 341 341
317 317 317 317 317 317 317 317 317 317 317 317 316 316 316 316 316 316 316 316 316 316 317 318 317 318 320 315 306 299 299 306 309 338 340 334 334 340 340 328 320 322 320 321 319 319 322 323 327 330 324 325 323 323 331 328 327 332 330 332 333 334 336 338 338 338 338 339 338 335 333 335 337 337 332 333 335 338 340 340 340 340 339 340 340 341 341 341
317 317 317 317 317 317 317 317 317 317 317 316 316 316 316 315 315 315 315 315 316 316 316 317 319 319 316 312 306 296 303 313 337 343 336 336 334 333 333 329 318 318 318 319 320 321 322 327 329 330 325 326 321 318 327 328 325 334 331 331 332 334 334 337 335 336 339 338 339 332 331 332 336 335 325 334 336 338 339 338 339 339 338 340 341 341 342 342
317 317 317 317 317 317 317 317 317 317 316 316 316 315 315 315 314 315 315 315 316 317 317 318 319 317 312 312 299 298 306 330 333 337 336 332 327 326 324 323 317 316 318 316 320 323 323 328 330 327 323 319 317 316 323 329 335 333 332 333 331 332 334 336 337 335 336 334 338 335 331 334 335 334 329 332 337 338 336 337 337 338 338 340 341 341 343 343
317 317 317 317 316 316 317 317 316 316 316 316 315 314 314 314 314 314 314 315 316 317 318 319 318 317 315 310 304 301 323 328 333 334 334 327 320 323 322 320 317 315 317 315 318 321 320 327 328 328 317 320 315 318 324 334 333 332 332 326 327 328 328 334 331 334 337 331 337 336 329 327 328 329 334 335 337 337 336 336 336 337 338 340 341 341 342 343
317 317 317 317 317 316 317 317 316 316 315 315 314 314 314 314 313 313 314 314 316 317 318 319 318 316 313 302 305 313 313 314 330 331 324 320 322 323 318 314 314 315 316 317 314 319 315 318 324 326 320 318 317 312 327 337 333 334 333 328 324 322 323 326 333 337 335 334 338 335 317 321 327 332 334 337 336 336 335 335 336 337 338 338 340 340 341 343
317 317 317 317 317 317 316 316 316 315 315 314 313 313 312 312 313 313 314 314 316 318 320 320 318 314 306 300 306 310 313 315 328 325 321 321 320 319 317 315 314 314 314 313 313 315 313 314 316 318 320 317 316 323 333 331 334 326 329 329 320 320 317 326 326 334 330 336 337 336 319 321 327 332 335 336 336 334 333 334 335 336 337 338 339 340 340 342
317 317 317 317 317 316 316 316 315 314 314 314 313 312 311 311 313 314 316 317 318 320 321 321 318 312 306 307 313 319 326 321 322 323 322 318 317 317 316 314 312 313 312 314 312 312 314 313 315 319 319 318 319 320 325 326 327 326 320 318 320 318 319 323 329 331 324 330 337 331 319 320 326 331 335 336 336 335 333 334 334 335 335 337 338 339 340 342
317 317 317 317 316 316 316 316 315 314 314 313 311 311 312 312 314 316 318 319 322 321 321 315 314 313 307 303 309 321 323 315 315 322 324 320 318 315 318 313 313 313 313 312 313 314 313 313 311 314 315 313 311 323 323 321 320 324 320 317 317 321 319 321 325 329 332 330 334 330 319 323 325 331 335 336 335 334 333 333 334 335 335 336 338 339 340 341
317 317 317 317 316 316 316 315 315 314 313 311 311 311 313 316 319 320 321 322 321 321 318 312 314 316 298 308 314 310 313 318 319 322 322 320 317 315 315 313 311 311 312 313 313 313 311 309 314 315 311 313 311 326 317 315 315 317 322 318 320 317 319 317 323 327 331 331 325 331 324 324 327 330 333 335 334 333 332 332 334 335 336 337 338 338 339 340
316 316 316 316 316 316 316 315 314 313 311 311 311 310 314 319 321 322 321 321 320 319 317 319 315 309 302 307 304 310 313 312 315 320 320 317 317 316 315 309 310 311 310 308 310 310 312 309 311 311 306 308 314 322 312 308 313 315 316 317 317 321 320 319 316 322 328 331 327 328 325 325 327 330 331 334 335 333 332 333 333 334 335 336 337 338 339 340
317 317 316 316 316 315 315 315 314 312 311 312 313 313 314 317 317 318 315 316 310 306 302 307 305 299 294 304 308 310 312 314 317 319 313 314 315 314 311 312 312 308 304 305 305 310 312 310 310 309 304 304 309 321 315 315 319 317 318 319 320 317 318 318 322 326 327 326 324 325 321 324 326 328 330 332 334 332 333 334 334 335 336 337 337 338 339 340
317 316 316 316 315 315 315 314 313 310 309 312 314 313 314 310 306 307 312 312 308 307 306 307 309 307 308 309 308 313 315 316 313 311 313 315 314 310 309 311 307 307 303 301 304 308 313 308 307 306 307 305 315 323 321 314 319 322 322 319 320 320 320 325 323 325 329 326 323 325 326 325 325 327 329 331 333 333 333 333 333 334 335 336 336 337 338 340
316 316 316 315 314 314 314 314 312 310 307 309 311 312 307 305 301 301 305 311 313 312 309 309 310 308 308 309 310 312 311 311 313 312 313 318 313 310 305 307 304 300 303 306 306 309 312 309 307 307 305 305 312 323 316 320 322 321 319 317 317 320 317 323 323 325 327 324 321 326 324 324 326 328 329 332 331 330 331 332 333 334 335 336 337 337 338 340
316 316 315 314 314 313 313 312 311 309 308 309 313 309 308 309 313 313 309 303 307 311 312 311 309 308 311 311 313 314 312 310 309 311 313 313 310 307 304 305 302 299 306 307 309 309 307 307 310 309 305 304 304 313 309 309 319 321 319 318 318 319 322 326 324 325 326 325 320 323 322 323 327 328 331 330 330 331 333 334 334 334 334 335 336 337 338 338
316 316 315 315 313 312 311 310 309 308 307 310 310 309 310 316 315 315 312 305 304 307 309 307 307 308 309 313 314 314 309 309 307 308 310 311 307 307 307 304 304 305 305 310 307 306 304 306 308 307 304 303 302 304 305 309 312 312 312 312 313 322 318 314 320 324 323 323 321 321 321 323 326 329 330 334 331 332 335 336 335 336 335 335 335 336 337 336
316 315 315 314 313 312 311 308 307 307 309 311 310 311 316 315 314 314 309 303 301 307 308 310 310 310 309 308 314 312 310 309 309 307 315 310 308 308 309 308 306 307 305 307 308 308 304 303 305 305 303 304 303 302 305 305 306 316 313 311 316 318 321 320 318 323 324 325 326 321 319 317 322 322 324 331 336 334 334 334 334 335 337 338 338 337 337 336
315 315 315 314 312 311 308 306 308 311 312 309 310 315 316 319 317 315 308 303 301 302 308 308 311 312 313 317 315 311 310 309 311 313 315 312 308 309 309 309 310 306 304 305 304 306 304 305 304 304 302 303 303 302 302 303 302 307 319 317 317 321 320 322 321 319 317 316 322 319 309 310 318 321 322 327 331 330 333 331 330 332 334 336 335 335 337 337
315 315 315 313 313 311 307 309 314 313 310 311 315 317 318 318 315 314 307 298 295 300 304 301 310 304 313 310 313 311 311 307 311 313 314 313 321 311 306 306 309 304 301 304 306 305 306 304 305 304 303 302 303 303 303 303 302 300 303 321 323 323 322 321 319 319 312 310 319 323 310 307 318 317 322 326 327 328 332 331 330 331 333 333 334 335 335 335
315 314 313 312 312 308 307 309 309 311 307 311 314 316 316 317 318 312 304 295 293 298 296 303 303 303 308 308 312 310 300 303 312 315 314 320 312 315 308 304 305 306 305 307 305 302 303 303 303 303 303 302 302 301 303 303 302 300 304 320 324 323 321 321 321 318 317 321 321 320 317 309 308 316 324 326 324 325 328 329 331 332 332 332 334 334 335 335
315 313 312 311 309 308 310 310 311 309 310 311 316 316 317 318 315 313 301 288 287 301 296 301 303 307 307 306 310 305 305 309 305 309 313 316 315 310 309 305 306 305 304 306 299 304 304 302 302 301 302 302 302 304 304 304 303 304 312 323 323 324 323 322 319 318 318 316 310 313 318 310 309 317 325 325 320 321 324 327 330 332 332 332 333 334 335 335
313 313 312 311 309 307 309 310 310 310 313 314 316 316 316 316 312 306 296 286 296 298 308 299 309 305 304 306 306 302 303 306 304 307 312 313 312 311 306 306 306 305 304 306 303 301 302 305 305 305 303 301 304 304 305 304 303 317 325 328 327 326 323 321 320 318 316 312 306 312 316 307 306 315 318 323 319 319 323 327 329 332 332 332 332 333 335 335
313 312 311 310 308 309 310 310 309 314 317 317 316 317 316 314 308 297 290 283 299 293 300 301 301 298 303 303 303 303 304 303 307 309 311 310 311 310 306 309 305 304 303 303 304 305 304 308 308 305 304 306 306 305 304 305 318 327 325 322 320 317 317 318 318 317 313 305 308 314 316 312 305 314 317 317 317 322 324 328 331 333 333 332 333 333 334 334
311 310 310 309 309 313 313 310 313 315 317 317 316 314 313 310 298 292 285 291 299 298 301 300 298 301 301 302 301 301 301 301 306 309 306 308 307 308 307 305 308 303 302 302 302 303 303 304 305 305 309 305 306 302 303 313 325 323 319 318 316 313 316 314 312 315 306 303 307 315 316 315 303 312 319 324 328 326 327 325 327 331 332 331 332 333 333 334
309 308 309 309 310 314 309 310 311 314 318 318 316 313 308 297 297 289 288 304 291 295 295 296 298 298 298 298 300 299 302 303 303 306 305 305 304 304 304 301 302 296 296 298 298 300 300 302 305 306 314 306 304 302 305 318 321 315 317 313 305 305 307 301 307 301 303 303 308 316 317 310 309 315 321 325 326 329 330 330 329 331 333 333 333 333 334 334
308 307 307 309 311 310 312 314 316 318 319 319 313 309 300 295 286 292 293 296 292 298 296 298 297 297 297 298 297 296 299 298 301 299 301 300 304 303 298 302 302 302 294 298 298 297 299 302 301 303 306 309 306 300 303 310 313 313 310 308 301 301 299 296 300 303 304 308 309 314 318 309 315 318 324 323 327 330 332 333 334 333 334 335 335 335 335 334
307 307 310 311 311 313 316 318 317 317 315 318 313 303 299 291 289 305 298 299 296 299 298 296 297 297 297 296 297 297 297 298 300 299 300 300 302 301 302 300 300 301 300 298 296 296 292 293 299 301 300 307 305 304 307 311 313 312 316 307 303 305 300 296 299 297 300 306 310 317 310 307 308 315 324 326 328 331 334 337 337 337 338 338 338 339 339 336
307 308 310 312 310 313 314 315 315 316 314 312 305 301 293 291 294 293 295 297 297 297 296 296 296 296 296 297 297 298 298 297 298 299 299 300 296 297 297 299 299 300 300 296 297 297 295 296 302 306 305 307 304 306 311 314 312 317 317 314 307 304 313 300 305 305 305 306 305 309 308 314 314 324 329 332 330 329 334 335 338 337 339 339 338 338 338 336
309 314 311 314 316 320 315 315 315 314 312 308 303 297 292 295 293 296 297 300 298 296 297 297 298 296 295 297 298 298 300 298 297 298 297 297 297 296 298 298 299 300 299 298 300 294 296 295 301 303 303 305 306 306 310 316 301 311 313 304 307 318 312 308 308 310 311 307 305 313 311 315 321 322 327 330 328 328 333 333 334 333 336 336 337 339 339 338
316 317 315 319 319 320 317 317 315 314 315 307 302 294 298 300 300 299 307 298 297 298 295 293 294 294 294 294 296 297 298 300 297 298 295 297 296 297 297 299 300 300 300 300 297 301 295 297 300 301 300 306 307 307 314 314 318 312 306 310 312 315 313 309 302 305 304 300 304 310 308 310 309 309 325 327 325 327 330 331 333 334 336 335 337 339 340 339
314 316 322 318 315 318 318 317 315 316 311 307 302 302 305 297 301 300 301 299 299 298 296 295 295 296 293 295 295 297 298 296 297 298 295 297 294 299 297 297 300 300 300 301 299 299 299 294 300 300 303 304 306 307 311 310 314 312 309 318 306 303 301 306 308 298 298 298 302 307 309 310 312 312 319 322 323 325 328 330 331 331 334 335 336 340 342 343
311 312 315 315 315 319 318 317 316 320 314 302 299 298 301 302 304 299 301 299 298 299 297 295 296 296 296 295 296 296 297 295 296 297 295 296 294 298 297 298 299 300 300 301 299 300 300 294 298 301 302 302 305 305 300 304 312 312 318 312 308 310 308 303 306 308 306 300 300 303 307 306 315 316 321 322 325 327 327 328 329 331 333 335 336 339 340 342
313 314 308 315 317 320 320 318 313 311 307 297 298 300 301 299 302 303 300 301 300 300 297 298 296 297 297 296 298 296 297 297 297 295 296 295 296 299 297 300 298 301 300 301 301 302 298 301 294 300 300 303 299 303 302 305 305 307 310 308 306 305 306 310 308 308 304 303 301 302 300 308 316 320 324 324 327 329 329 328 330 331 334 337 338 339 341 343
311 313 312 317 317 317 316 313 308 303 302 299 300 299 299 302 303 302 301 301 301 301 301 299 299 297 297 298 297 298 297 297 296 296 295 295 296 295 299 299 298 299 300 300 302 302 300 299 296 300 299 299 302 302 304 308 309 308 309 308 307 304 303 301 300 309 309 304 298 301 299 311 316 323 324 326 328 330 331 331 331 333 334 336 337 338 338 340
314 306 309 316 318 315 311 305 302 302 301 300 298 301 300 314 300 300 302 301 301 301 302 301 299 299 298 299 298 298 298 297 297 295 295 295 296 297 299 298 299 299 300 301 302 303 303 303 300 298 299 300 300 301 303 303 304 308 311 309 309 308 309 305 297 303 308 308 309 308 303 310 319 324 325 327 329 331 332 332 331 333 335 335 336 338 339 339
312 308 316 319 316 314 312 305 312 305 301 301 302 301 301 300 298 300 300 300 301 300 301 300 299 300 300 299 299 299 298 296 296 294 295 297 298 299 300 299 299 300 301 302 302 305 312 303 300 298 302 301 302 302 301 301 304 307 306 304 306 305 308 307 307 310 307 308 305 305 302 309 318 327 327 329 331 331 333 333 332 333 335 336 337 337 339 339
310 311 316 319 315 313 307 299 299 300 303 307 300 299 300 299 299 300 299 300 298 300 299 299 300 301 300 301 302 299 300 295 296 296 296 296 299 300 300 301 303 305 305 301 302 306 302 302 300 296 296 297 299 301 302 303 304 303 304 303 305 306 307 309 313 315 307 309 308 304 298 308 318 325 326 328 329 329 329 332 333 331 333 334 335 338 340 342
312 311 312 317 316 310 304 303 303 301 300 299 299 299 298 299 299 298 301 300 300 299 299 299 299 301 302 301 301 301 301 298 296 297 296 297 299 300 300 300 304 305 309 314 314 316 302 299 300 294 291 289 290 292 294 298 300 301 301 304 308 307 309 308 305 309 300 310 309 305 306 313 319 322 324 326 327 327 328 328 331 332 331 332 334 336 338 340
308 306 307 310 311 308 304 303 301 300 301 301 299 297 296 297 299 298 300 301 300 301 301 300 302 302 302 302 300 300 300 301 299 298 300 298 299 300 299 300 302 306 316 313 311 310 304 303 301 300 299 296 297 298 298 303 301 299 299 304 304 310 311 313 315 308 301 309 308 310 313 312 313 317 320 323 326 324 323 326 327 328 330 332 333 334 335 336
310 307 305 306 310 307 303 307 309 303 300 303 302 297 297 298 297 300 301 301 302 301 301 300 299 300 299 301 299 299 301 299 302 301 298 299 301 300 301 301 302 308 318 308 309 306 306 300 300 302 298 297 297 298 297 297 297 297 298 302 304 308 310 309 305 303 316 308 304 314 315 312 313 316 319 322 324 324 324 325 326 327 328 329 330 331 332 333
306 305 309 311 298 303 304 304 309 307 303 300 299 297 297 297 300 299 302 300 300 303 301 302 300 298 299 300 302 298 300 300 300 297 300 299 301 302 302 302 302 304 308 304 307 306 303 298 300 299 296 297 297 297 296 298 298 301 304 304 305 306 308 307 310 310 313 305 302 315 316 315 317 317 321 323 324 323 324 325 327 328 328 329 330 331 331 332
310 309 309 311 306 304 306 307 308 306 302 301 304 299 297 298 298 298 298 301 302 301 301 299 296 297 298 302 303 300 300 297 296 299 299 299 298 301 299 301 303 304 303 304 305 306 306 298 301 300 298 297 298 298 298 298 297 299 300 304 308 306 307 310 310 310 312 313 311 316 317 318 319 319 322 325 326 326 327 329 329 327 327 328 329 331 331 331
308 308 308 311 311 311 310 308 302 301 301 302 300 297 297 297 298 298 300 300 299 299 302 297 296 298 299 300 305 298 297 299 297 296 298 299 299 302 298 299 299 304 303 301 302 306 301 304 305 299 299 297 298 300 299 298 299 299 300 301 301 308 311 313 312 313 315 314 315 316 317 316 322 324 324 327 327 328 327 326 326 327 327 327 328 329 329 329
314 313 312 311 308 309 312 305 302 304 300 301 302 299 300 299 299 301 300 300 301 299 300 298 299 300 300 301 300 298 300 301 302 299 298 299 297 300 299 299 301 300 301 302 302 305 305 305 301 301 298 296 298 298 299 297 297 300 300 301 301 300 309 311 312 313 313 313 315 315 314 315 320 323 325 325 326 325 324 324 326 326 328 328 328 328 327 327
317 315 315 313 308 309 306 304 298 298 298 299 300 304 300 300 301 301 300 301 300 302 302 301 300 301 301 302 299 300 301 302 301 301 300 300 302 303 303 302 300 301 301 301 301 304 303 303 305 301 296 294 297 298 299 299 300 298 297 300 300 300 305 310 312 315 315 318 314 311 314 321 322 323 322 323 324 324 324 325 326 328 329 329 328 327 327 327
Wind_Speed
11 11 11 11 11 11 11 12 12 12 12 11 11 11 11 11 10 10 9 9 9 10 10 10 10 11 11 11 11 11 9 7 6 3 5 15 9 12 10 4 12 14 9 13 13 13 9 8 10 8 6 5 3 5 4 4 2 1 1 1 2 1 3 3 7 8 6 12 10 8 5 14 11 8 9 11 11 11 9 10 9 11 10 13 17 17 17 16
12 11 11 11 11 11 11 12 12 13 13 12 12 11 11 11 11 10 9 9 9 9 9 9 10 10 11 10 10 10 9 5 8 9 18 6 15 13 11 7 10 16 14 13 15 12 14 9 11 10 8 5 3 3 4 2 2 2 1 2 1 2 1 1 2 3 9 9 10 7 6 10 11 12 7 7 10 12 11 9 12 14 15 17 18 18 18 17
11 11 11 11 11 11 11 12 12 12 12 13 13 12 12 11 11 11 10 9 9 9 9 9 9 10 10 10 10 6 7 4 4 10 10 13 17 17 14 9 12 18 16 15 12 13 13 14 13 12 7 4 4 4 5 2 3 2 2 2 0 1 1 2 1 3 2 13 11 11 7 10 10 9 7 9 11 11 12 12 11 14 18 19 18 17 17 16
12 12 12 12 12 12 12 12 12 12 12 13 13 13 12 11 11 10 10 9 8 8 8 8 9 8 9 9 7 6 4 3 3 2 2 3 16 15 16 12 14 16 5 7 10 8 8 12 12 10 7 4 3 2 5 3 3 1 3 2 1 1 3 3 2 3 11 11 12 11 10 10 7 7 8 12 11 7 8 9 14 18 20 20 19 18 16 16
12 12 12 12 12 13 13 13 13 13 13 13 13 12 12 11 11 10 10 9 8 8 8 8 8 8 8 7 4 4 3 3 2 2 2 3 15 14 16 13 18 13 9 9 10 9 12 13 11 7 5 4 3 4 5 3 5 1 3 3 3 3 2 5 4 6 10 9 10 12 13 9 8 8 9 13 9 7 8 8 10 18 21 22 21 18 16 16
12 12 12 13 13 13 13 13 13 13 13 13 12 12 12 11 11 10 9 9 8 7 7 7 7 7 7 5 4 3 2 2 2 4 9 5 13 14 16 15 18 12 13 14 11 12 14 10 12 8 5 4 6 5 2 4 5 4 2 2 2 2 2 4 6 7 10 11 12 10 7 10 9 8 8 3 2 6 7 8 11 13 16 18 20 18 17 16
12 13 13 13 13 13 13 13 13 13 13 13 12 12 12 11 10 9 9 8 8 7 7 7 6 7 5 3 1 3 1 7 3 4 7 11 14 15 16 18 14 12 14 12 12 13 13 13 10 9 6 3 4 6 3 3 6 5 2 3 3 2 5 6 8 8 9 11 8 8 7 9 12 10 3 4 5 9 10 12 13 14 15 17 18 17 17 16
12 12 13 13 13 13 13 13 13 12 13 13 12 12 11 10 10 9 8 8 7 7 6 6 6 5 2 1 2 1 1 6 3 4 4 14 15 16 19 13 10 12 15 14 15 14 15 14 11 9 6 7 2 7 3 4 6 6 3 2 2 1 6 7 9 10 10 10 10 10 10 5 6 9 7 6 9 12 13 14 15 15 16 15 15 16 15 14
13 12 12 13 13 13 13 13 12 12 12 12 12 11 10 10 9 9 8 7 7 6 6 5 4 4 4 2 0 3 4 3 2 3 10 14 14 12 16 11 7 14 10 9 10 12 14 11 10 10 5 9 3 4 5 5 4 8 2 3 3 4 7 8 9 9 11 7 10 12 10 8 6 9 6 8 10 13 15 15 16 16 15 15 15 15 14 13
13 12 12 13 13 13 13 13 13 12 12 12 11 11 10 9 9 8 8 6 6 6 5 5 5 5 2 2 1 2 1 2 2 1 7 10 13 14 6 10 10 11 13 9 9 14 11 11 11 7 1 4 2 3 4 8 3 6 4 3 4 7 8 7 8 8 7 8 8 13 10 9 6 4 4 7 12 15 15 15 15 16 15 14 13 13 12 13
13 13 13 13 13 13 13 13 13 12 12 12 11 11 10 9 8 7 7 6 6 5 4 3 2 3 2 3 2 4 1 1 3 5 6 6 17 14 10 10 10 9 11 7 10 11 3 7 6 3 2 1 2 3 5 2 2 8 7 8 7 2 5 8 8 8 8 5 6 13 10 7 4 1 5 11 14 16 16 15 16 14 13 12 13 13 11 10
14 13 13 13 13 13 13 13 12 12 12 12 11 10 8 7 7 6 6 6 5 5 5 5 6 2 2 2 4 5 3 4 3 6 7 1 3 4 6 10 10 9 11 11 8 6 2 6 7 8 1 1 2 3 0 4 5 8 6 3 5 4 6 6 8 9 4 5 4 13 12 7 5 3 9 13 13 15 16 16 16 14 12 12 12 11 11 10
14 15 14 13 14 14 14 13 12 12 12 11 11 9 8 8 6 5 4 4 4 6 5 5 5 3 2 3 7 4 3 2 5 9 5 4 8 9 7 5 4 3 5 13 9 7 3 3 4 12 1 2 4 5 4 8 8 7 3 3 5 3 2 5 4 6 8 5 4 5 6 7 5 5 11 13 14 15 15 14 14 12 11 12 12 10 11 10
16 15 15 14 14 14 13 13 13 12 11 10 10 9 8 7 6 3 4 4 3 2 5 7 4 2 1 5 3 2 2 2 6 10 7 5 9 6 8 5 5 4 3 2 2 3 3 2 3 1 1 3 3 3 5 4 1 4 4 1 1 6 2 3 4 6 9 4 2 3 3 6 7 5 12 13 16 17 14 14 13 12 11 11 11 10 10 11
16 16 15 15 15 14 13 13 12 12 11 10 10 9 8 6 5 4 3 5 4 4 7 7 2 1 2 5 3 4 7 5 7 7 8 9 10 9 7 6 6 4 3 4 3 1 2 0 2 3 3 3 1 4 6 5 2 3 4 2 3 2 2 2 5 3 7 4 2 2 2 8 9 8 13 13 14 15 15 14 13 12 11 11 10 10 10 10
13 14 15 16 15 14 12 10 9 11 11 10 9 8 7 6 5 5 7 2 7 7 6 2 1 1 2 5 3 2 4 3 5 8 5 6 7 6 9 7 6 4 4 3 2 1 2 2 2 1 3 2 2 6 6 4 2 2 2 2 6 3 3 2 4 2 3 6 2 2 3 9 6 9 13 13 14 14 14 14 13 14 13 11 9 9 8 9
13 12 12 15 15 14 13 9 9 11 10 9 8 5 5 5 4 8 9 4 7 4 3 0 1 2 2 2 2 3 2 2 3 5 5 1 3 12 12 10 5 5 2 4 3 4 5 6 1 2 1 3 1 8 7 4 3 5 3 1 3 6 7 3 5 6 4 9 8 3 5 6 6 12 14 12 13 12 13 14 14 12 11 11 9 9 9 9
14 13 12 14 15 14 12 9 9 10 10 8 5 3 2 3 1 8 7 6 4 3 2 2 1 2 6 5 1 3 0 1 3 6 4 2 8 11 10 5 5 8 6 5 1 4 3 5 1 3 1 2 5 8 7 7 8 7 4 3 4 3 8 3 6 5 7 7 8 4 4 7 9 12 15 14 12 12 13 13 14 13 12 11 9 9 10 9
17 15 12 12 12 13 11 9 7 8 9 8 5 5 2 2 2 1 4 4 3 2 2 2 2 2 3 0 4 5 1 4 6 9 6 9 4 6 6 6 12 13 9 7 4 4 3 2 2 3 6 6 8 9 7 4 6 9 10 4 5 6 7 4 4 3 8 8 9 7 7 9 11 13 13 14 13 12 11 11 11 11 11 11 10 9 9 9
18 15 13 12 11 11 11 9 5 3 7 1 5 4 2 2 2 2 1 1 5 6 6 3 3 3 7 8 4 5 1 3 5 2 8 3 11 9 8 9 7 2 10 8 8 3 4 7 7 8 7 4 4 10 9 2 4 6 7 6 5 5 3 3 6 5 5 4 6 7 8 10 12 13 13 14 14 11 11 12 11 11 11 10 10 10 9 9
15 14 13 12 10 9 10 7 2 3 1 0 2 2 3 2 3 4 2 7 5 5 7 6 8 7 6 3 3 5 3 4 2 6 7 6 8 11 6 9 10 9 5 8 9 4 4 7 8 8 2 6 9 9 3 2 5 9 6 5 5 3 3 2 4 7 0 2 3 4 9 10 12 11 13 14 15 15 15 13 12 12 11 10 11 10 10 9
16 15 14 12 10 8 8 4 0 5 1 2 2 2 0 4 3 0 0 6 3 7 7 6 2 7 4 7 5 1 2 4 9 8 4 6 9 2 6 5 11 10 6 8 8 6 6 9 8 5 2 0 1 4 3 2 6 7 5 4 4 4 5 5 8 6 4 1 2 3 7 9 10 12 11 13 15 14 14 13 13 13 12 10 10 10 10 9
16 16 14 12 10 8 6 2 1 7 3 4 3 2 3 2 3 2 1 2 7 2 2 2 5 7 6 3 3 6 3 4 5 6 10 5 4 0 9 8 8 9 7 12 12 8 7 9 8 1 4 5 2 4 4 3 3 5 4 5 4 6 6 2 5 6 5 2 4 4 6 5 5 8 11 8 12 12 13 12 11 11 13 13 13 12 11 11
18 17 15 12 11 9 4 5 5 4 3 4 3 6 1 1 2 3 4 3 5 3 4 4 4 2 5 0 5 8 5 2 5 8 5 7 7 3 6 5 12 9 9 8 8 10 4 3 1 5 5 6 5 4 6 6 5 3 5 5 3 9 7 5 6 8 6 0 4 7 2 5 7 9 9 7 4 8 8 10 10 10 10 11 11 12 11 12
18 17 16 13 12 9 4 7 3 4 4 3 5 6 4 2 2 6 3 2 2 3 1 1 2 4 1 2 3 3 2 3 0 5 7 7 6 4 4 2 6 6 6 6 7 7 5 2 3 6 4 3 4 5 6 5 4 3 6 6 7 9 9 9 13 10 5 4 5 12 6 7 10 11 15 11 6 10 11 12 13 12 11 10 11 11 10 10
16 16 17 13 13 10 3 3 2 3 3 4 1 3 2 3 3 4 2 2 2 3 2 2 2 3 1 2 3 1 3 5 1 2 8 5 4 3 3 3 2 8 5 8 5 1 2 3 6 5 6 5 5 6 3 5 3 3 2 8 7 10 10 13 13 8 5 4 7 9 6 3 9 12 12 11 13 14 10 12 13 12 11 11 11 11 11 11
15 15 15 13 11 6 1 1 2 2 2 1 2 1 2 2 3 7 2 0 3 2 3 2 1 2 2 1 3 1 7 4 2 4 7 3 5 3 6 3 2 3 2 3 1 5 3 4 2 2 4 5 5 7 5 7 3 4 3 6 9 11 12 12 10 4 3 4 7 9 1 1 5 10 11 13 13 13 12 12 12 11 12 13 12 12 11 11
17 14 13 11 7 2 2 4 4 3 4 2 1 1 2 2 4 1 1 2 1 2 2 2 1 1 1 2 1 2 3 4 6 3 2 3 2 3 1 6 5 8 4 4 10 3 4 6 5 5 3 4 7 4 5 8 5 1 2 10 11 11 10 11 9 5 3 2 3 6 4 1 1 2 8 11 11 14 15 14 13 11 13 14 14 13 13 13
14 14 13 11 8 2 4 2 1 4 0 1 3 2 1 3 2 0 1 3 2 1 1 2 1 2 2 3 3 1 1 2 1 3 1 3 3 2 5 8 4 6 3 4 6 3 2 5 9 7 6 7 3 3 6 9 5 3 8 9 8 6 5 7 6 5 3 2 6 9 7 2 0 2 8 10 12 17 17 17 14 12 13 13 13 14 14 12
13 13 14 10 5 3 2 1 6 3 3 2 3 1 2 2 2 2 0 2 3 2 1 3 4 0 1 3 1 3 2 3 2 3 2 3 3 3 5 2 4 7 4 3 3 2 3 3 2 3 6 6 5 2 5 9 7 12 13 13 10 8 6 5 2 2 3 4 4 9 11 6 4 7 9 11 13 12 10 10 11 11 10 12 13 14 13 12
15 12 10 5 3 0 4 3 4 2 2 1 0 3 2 3 0 2 2 3 1 4 2 1 1 1 3 4 4 2 2 2 2 5 5 2 4 5 3 5 3 4 3 1 4 1 1 3 3 3 5 2 1 5 2 7 16 13 6 10 9 6 4 3 2 2 4 3 2 7 13 7 7 4 10 11 3 13 13 14 16 13 13 12 12 13 13 13
16 12 9 6 4 2 4 2 2 1 2 1 1 2 2 3 1 5 2 2 2 3 2 3 1 1 3 2 2 2 2 3 2 3 7 4 6 5 2 2 4 5 5 3 5 2 5 7 3 4 2 9 5 6 5 11 12 8 10 10 6 3 3 2 1 4 5 2 3 4 11 5 11 0 3 11 9 12 13 12 14 16 14 12 12 13 11 11
18 14 11 10 7 3 7 1 1 3 2 1 3 0 1 2 4 1 2 2 1 2 1 2 3 2 1 2 2 1 2 2 2 3 2 4 4 3 2 2 1 1 2 3 3 3 5 2 4 6 1 7 8 7 8 9 9 10 11 9 7 5 4 3 2 3 3 3 2 5 11 6 2 2 6 7 13 12 12 12 11 14 14 13 12 12 11 11
19 16 3 6 10 7 2 2 1 4 1 2 2 1 1 5 3 1 3 2 3 1 2 2 1 2 3 2 2 2 4 4 0 2 2 3 1 4 2 2 0 2 1 2 5 3 6 6 9 8 7 7 11 7 10 5 9 9 7 10 6 7 4 5 5 6 4 2 4 8 7 2 6 4 1 5 5 8 11 9 9 6 7 9 9 9 11 11
20 7 3 2 4 8 11 6 3 3 1 1 4 2 4 1 3 2 3 1 2 2 2 1 1 2 3 1 3 0 2 4 4 4 5 2 2 0 1 1 1 0 3 4 2 1 3 4 1 10 2 10 11 9 12 11 10 8 6 2 8 9 3 2 2 3 3 5 5 6 3 1 2 2 4 3 5 7 10 11 9 7 7 9 8 9 10 11
8 3 1 1 2 1 3 3 5 4 3 4 2 5 4 2 4 3 1 2 1 2 3 1 3 3 1 2 2 2 4 1 2 2 3 4 2 2 1 1 0 1 2 5 2 4 1 4 2 2 2 10 12 12 8 13 8 8 5 11 4 2 5 4 4 3 4 2 4 3 3 2 2 5 3 3 5 9 12 12 11 10 9 10 10 9 9 9
3 3 2 2 1 1 3 4 5 3 2 3 3 4 1 2 4 3 2 4 3 1 1 3 3 1 1 2 2 4 3 3 3 0 3 1 2 3 3 1 2 1 1 3 3 3 2 2 2 5 6 8 1 13 14 13 5 8 9 8 7 3 4 2 3 2 2 5 2 3 7 3 0 2 1 5 7 10 14 15 11 12 9 10 9 8 8 9
4 2 0 1 5 2 3 5 3 2 3 3 4 4 1 2 2 4 1 2 2 1 2 1 2 2 1 0 2 3 3 1 1 1 4 3 3 3 1 2 1 1 3 3 4 1 3 5 2 3 1 4 5 8 5 2 5 6 7 11 9 5 8 1 3 4 5 4 2 2 5 6 5 2 4 8 8 11 13 15 15 15 14 12 10 9 8 7
0 1 2 5 4 3 3 3 1 2 2 4 2 2 0 4 2 2 1 1 1 1 2 2 0 2 0 2 1 1 3 4 0 2 3 1 2 1 2 1 1 2 2 4 4 1 1 3 1 1 3 5 8 10 10 9 4 4 5 12 1 2 4 8 3 1 4 2 2 3 2 4 7 3 9 8 9 11 13 14 16 16 13 11 11 10 9 7
2 2 2 3 2 2 4 2 2 4 3 4 0 1 1 3 3 3 2 3 2 1 2 1 1 3 2 2 1 3 4 4 2 2 1 0 1 1 2 2 4 5 2 2 1 1 2 1 2 4 1 5 7 7 9 11 11 7 8 8 6 1 3 2 2 1 4 3 3 1 3 4 2 2 4 8 9 11 13 13 13 13 11 9 8 8 8 7
1 3 0 2 3 1 2 3 5 4 2 1 2 2 3 4 5 5 3 1 2 1 3 2 1 3 0 1 4 2 2 3 2 2 2 3 1 2 1 2 1 2 1 2 2 1 2 3 3 2 4 7 2 1 4 14 15 11 9 10 9 6 7 9 6 2 0 2 2 4 4 2 3 2 1 4 7 9 11 13 12 12 11 8 6 5 5 5
1 2 1 2 4 0 1 2 2 0 1 2 4 1 3 3 3 7 5 4 4 3 2 4 3 3 1 3 1 3 2 3 3 1 3 3 1 1 1 3 3 3 1 1 1 1 1 1 1 3 2 3 2 2 3 5 2 2 8 10 12 7 6 8 6 5 2 2 2 2 2 1 2 1 2 5 8 8 9 10 11 11 9 9 7 8 6 6
3 1 2 3 5 1 2 3 1 1 1 1 3 2 3 1 1 3 4 6 4 2 3 6 4 1 3 1 1 3 2 4 4 3 2 2 2 2 4 6 2 2 2 2 3 1 3 1 2 2 1 1 1 2 4 2 3 6 0 2 10 12 9 8 4 6 6 4 3 2 3 1 3 3 3 6 7 6 7 9 10 10 10 8 7 9 7 7
0 2 1 1 3 2 1 1 2 3 0 1 2 2 1 2 4 6 5 5 4 5 3 3 1 5 4 2 2 2 3 3 3 2 3 1 2 1 2 6 3 1 1 2 1 2 3 1 2 2 3 3 4 4 4 2 2 1 3 2 2 3 5 4 6 1 6 5 1 5 7 2 4 3 4 8 9 8 8 6 8 9 8 9 9 8 7 6
1 1 2 5 3 0 1 1 1 0 2 3 3 4 4 2 2 1 3 5 3 2 1 3 2 3 2 2 4 2 5 3 4 3 1 1 1 2 2 3 6 2 2 1 4 2 1 1 2 3 7 9 9 9 7 7 3 2 0 2 1 7 12 8 5 4 4 3 2 4 2 3 6 6 9 9 10 9 7 7 6 7 8 8 8 7 7 7
2 2 2 1 4 4 4 1 2 1 1 1 3 2 0 1 1 2 0 3 3 2 4 1 1 1 3 1 5 6 8 7 2 2 1 1 2 1 1 6 4 5 7 3 4 2 2 1 2 2 2 1 3 3 2 2 2 2 3 2 3 1 2 2 4 5 7 5 6 2 1 7 8 10 11 11 10 10 9 9 8 7 7 6 6 6 6 5
1 2 2 1 3 4 3 2 3 2 1 1 2 1 3 3 3 1 2 2 6 4 3 6 4 1 1 2 3 5 4 2 4 3 4 2 2 3 4 3 5 8 10 2 5 1 2 2 6 3 7 3 2 2 4 2 1 3 2 4 0 3 2 5 8 6 7 7 5 3 6 10 11 13 13 12 11 10 9 9 9 8 8 8 7 7 7 7
0 1 0 0 1 1 1 1 5 2 0 1 1 1 2 1 4 2 3 3 1 4 2 1 7 5 2 1 3 3 4 3 4 2 2 1 3 3 2 2 6 7 6 3 4 1 1 2 4 1 5 4 4 4 3 4 5 4 4 4 2 1 1 7 2 3 10 8 6 9 12 10 10 15 15 13 11 11 10 10 9 10 9 9 9 9 8 8
2 2 1 2 1 1 1 3 3 1 4 2 2 2 1 3 6 3 1 3 4 6 5 3 6 7 3 1 2 2 2 1 4 1 1 3 3 3 3 3 1 6 6 3 5 2 1 2 1 2 1 3 8 8 7 7 6 8 10 10 7 3 2 3 3 2 2 3 2 9 14 9 9 14 15 14 12 11 10 10 10 10 11 10 10 10 10 8
3 2 1 2 2 0 1 1 1 1 3 2 3 1 2 1 3 1 2 4 2 2 2 7 3 6 6 5 3 4 3 3 4 4 1 1 0 1 1 1 4 4 5 4 3 3 1 2 2 2 1 5 8 6 7 5 4 10 9 11 10 5 3 4 3 4 4 6 4 9 10 6 6 11 15 13 12 12 11 11 11 11 11 11 10 10 9 9
1 0 0 1 1 2 1 2 1 1 2 1 3 2 3 0 5 2 4 1 3 2 2 6 3 3 4 7 9 6 0 1 1 2 2 2 2 2 1 2 1 4 6 4 4 4 4 2 2 0 2 3 7 9 5 2 1 6 11 14 12 8 2 2 1 1 2 6 8 8 5 6 9 13 14 11 14 13 13 12 11 11 12 12 11 10 10 9
1 2 1 1 1 2 2 1 1 2 3 0 1 3 2 4 3 1 6 1 3 3 0 2 1 3 4 7 8 5 4 1 3 3 2 1 1 3 2 2 1 3 3 3 1 2 3 2 1 2 2 2 4 4 5 4 3 2 9 11 11 7 3 3 2 2 2 11 10 8 3 2 11 14 16 14 14 13 13 12 11 11 11 12 11 10 10 10
Wind_Direction
340 337 332 331 329 328 326 323 322 321 321 320 320 320 316 316 315 314 315 313 313 313 315 317 319 320 320 324 325 325 327 324 300 256 227 238 184 210 168 169 167 194 166 127 126 131 132 134 139 159 147 175 144 199 172 215 147 130 218 36 198 306 201 172 180 173 110 144 148 165 146 127 127 120 116 109 86 91 98 88 87 93 96 109 120 129 138 143
337 335 333 329 329 326 322 321 320 319 319 318 319 318 317 315 315 312 311 312 312 312 313 316 318 318 320 321 327 326 329 298 285 265 239 189 201 199 191 191 164 178 152 141 151 145 139 147 146 160 150 154 160 198 177 184 162 218 206 208 233 207 86 20 98 108 154 141 142 138 152 134 128 132 150 125 122 120 105 104 111 108 107 114 124 134 145 149
336 334 330 330 326 323 321 318 319 317 316 317 315 316 316 316 314 312 311 311 311 311 311 315 317 317 319 324 320 356 327 300 258 256 276 222 198 187 183 182 171 166 169 156 163 154 153 153 150 155 163 147 181 198 198 180 206 220 242 239 178 147 122 114 249 122 105 136 135 136 132 122 134 135 145 138 138 140 137 137 133 130 131 135 135 144 147 151
336 333 331 326 325 322 320 319 317 317 315 314 314 314 315 315 314 314 310 311 310 311 314 309 312 318 318 319 334 339 293 260 254 283 269 226 189 174 173 166 164 162 126 140 147 141 115 132 149 160 146 179 155 216 203 183 229 121 227 242 28 160 173 145 145 139 136 144 135 128 129 116 141 132 144 136 135 152 151 155 152 148 144 142 142 148 151 152
335 332 328 325 321 321 319 318 318 316 315 313 313 312 312 312 313 311 312 310 311 312 310 310 310 315 317 309 348 334 306 289 114 277 316 122 174 168 160 159 161 152 149 121 122 123 142 143 151 157 172 161 168 202 242 177 227 257 252 298 271 182 182 137 133 142 136 131 121 131 137 125 121 125 141 156 155 174 175 161 158 148 148 145 147 152 154 156
332 330 327 323 322 321 319 318 317 317 315 314 312 311 310 311 312 313 310 308 309 308 305 306 309 310 313 330 308 286 279 194 358 319 339 143 167 157 152 148 145 143 135 144 139 144 141 156 155 159 172 176 186 206 92 218 187 258 183 277 318 225 158 142 142 138 133 133 131 134 106 124 141 133 150 152 56 119 130 131 141 145 146 143 142 150 156 157
333 329 325 324 321 320 320 317 316 315 314 313 312 313 311 309 312 309 306 307 300 301 298 304 305 305 324 356 270 285 224 295 309 330 354 148 156 149 145 138 136 149 148 131 142 151 163 158 177 162 161 167 199 234 216 214 198 249 328 105 253 251 158 155 140 141 137 128 113 107 135 128 133 135 155 97 107 123 124 127 134 141 142 142 143 152 154 157
331 328 326 323 322 319 319 319 316 314 312 312 314 312 311 309 307 307 306 301 301 294 298 297 306 304 284 290 191 262 359 255 311 319 122 135 141 145 142 132 140 154 157 156 154 158 159 165 173 149 177 191 139 208 197 213 204 230 253 172 75 132 137 146 135 133 117 108 121 123 108 92 138 133 145 112 131 128 126 130 135 143 145 144 144 149 152 155
331 328 327 324 322 320 319 319 318 314 312 313 312 313 310 309 305 302 301 299 294 291 288 295 294 299 96 292 4 303 248 257 310 339 131 138 137 134 136 134 164 159 150 137 158 153 162 179 156 174 186 206 173 211 192 206 208 219 224 116 109 121 134 132 128 131 123 113 122 95 93 100 96 128 96 132 131 130 129 134 140 146 149 148 149 149 153 157
331 330 327 325 323 322 321 319 317 317 314 312 313 313 311 307 305 300 298 297 290 288 288 284 266 242 212 229 168 258 57 261 9 200 138 138 124 132 140 137 152 141 142 153 147 162 189 170 172 161 133 205 174 243 202 219 1 162 145 112 126 121 138 141 131 131 122 115 125 113 114 112 129 204 121 150 138 132 134 140 146 151 154 152 151 152 156 158
332 330 328 326 325 323 319 317 319 318 316 315 316 317 314 308 301 296 294 291 289 287 277 263 179 160 221 260 196 250 81 149 29 131 142 159 137 145 149 155 152 143 139 144 160 172 129 174 157 136 247 80 199 271 219 235 188 143 128 111 100 26 140 131 114 123 125 86 113 111 105 115 110 197 141 153 147 142 138 147 151 154 156 157 154 155 157 157
334 331 328 327 326 323 321 320 318 318 316 317 316 313 308 305 301 299 291 290 285 270 250 225 198 215 280 228 235 233 56 90 116 127 137 265 96 64 121 151 165 144 146 156 166 177 209 161 176 188 144 190 299 299 141 209 161 140 154 123 88 29 130 119 133 146 139 118 145 116 105 121 159 110 138 151 150 146 143 150 156 157 158 161 157 156 161 160
333 332 330 329 327 326 323 322 321 319 321 317 314 311 306 304 301 293 288 264 240 225 213 176 179 207 264 244 230 221 197 21 101 129 129 98 96 88 94 79 80 119 155 156 166 194 158 42 175 201 55 324 4 8 46 84 91 82 4 115 103 94 38 4 344 134 117 138 185 177 159 170 150 118 150 155 152 147 145 152 157 157 160 163 164 162 165 163
333 332 332 330 329 327 325 323 321 322 319 316 314 311 306 299 289 280 246 235 198 184 178 163 154 169 253 256 270 195 229 145 133 143 153 148 98 94 109 69 88 94 61 72 131 183 155 30 30 136 32 284 26 128 125 69 115 164 118 222 131 155 162 10 329 138 124 164 294 329 175 162 155 140 157 161 156 153 152 157 159 157 158 163 171 167 167 167
331 332 330 331 330 328 326 324 324 321 319 320 319 315 303 285 252 217 190 188 195 171 140 113 134 221 228 269 275 282 151 126 152 177 169 154 120 111 122 110 91 91 91 111 161 219 165 17 350 199 207 58 245 162 119 134 129 136 145 183 152 224 118 281 288 169 145 184 280 160 152 173 163 153 165 164 164 158 153 159 162 160 162 164 171 172 168 169
326 327 327 332 331 330 326 326 324 323 323 323 323 314 291 260 226 186 181 151 165 165 149 183 182 270 293 285 98 77 145 166 189 186 178 166 149 125 138 112 106 89 142 81 85 119 162 162 246 36 305 199 218 160 140 132 156 217 222 170 168 143 138 169 165 301 304 132 160 237 164 141 171 165 166 168 166 164 155 161 164 163 163 167 173 173 173 166
328 325 325 329 333 330 330 325 324 328 328 325 320 306 277 270 221 208 211 205 158 162 195 22 107 196 306 93 258 204 112 108 107 131 162 337 103 126 126 125 117 119 82 99 61 123 142 188 122 199 83 264 304 169 156 178 170 207 198 169 175 173 158 188 39 264 240 165 162 178 149 166 142 158 169 168 167 166 161 163 165 166 165 171 174 178 176 176
329 328 327 329 331 331 330 325 331 334 331 319 287 216 79 94 41 132 105 98 127 168 292 252 291 280 248 273 216 93 216 133 127 126 111 79 133 140 133 127 129 120 128 128 37 152 167 173 249 200 170 186 196 190 195 192 191 181 181 163 166 174 185 143 166 218 190 185 163 150 147 142 145 156 170 170 169 171 168 168 167 169 168 172 179 183 184 183
332 330 325 326 325 329 331 330 340 337 334 324 117 165 224 305 10 108 113 139 178 187 220 147 206 313 111 47 325 286 224 116 110 137 136 125 127 104 76 93 134 139 152 163 138 160 163 146 152 226 219 186 193 199 208 45 181 178 181 181 161 175 187 201 152 136 216 155 152 164 169 150 153 163 169 174 177 175 173 169 168 170 171 175 180 186 188 191
330 328 327 326 325 326 330 330 334 43 340 148 125 115 164 189 189 191 131 223 224 262 279 246 195 294 289 268 274 308 66 170 137 38 140 144 139 120 98 129 115 122 155 167 147 184 171 180 192 203 209 177 174 203 222 11 220 155 165 151 181 164 134 103 115 183 246 174 158 160 151 157 160 166 170 176 178 183 175 173 173 174 174 181 185 188 192 196
325 327 327 327 324 323 325 323 324 90 340 259 166 199 358 84 354 345 282 228 221 234 243 226 200 233 266 10 292 314 112 74 42 134 154 168 137 133 130 142 147 154 192 138 137 121 210 199 214 225 111 182 201 200 136 120 181 168 161 163 152 184 148 183 120 171 248 339 115 134 154 166 163 164 172 174 182 190 189 182 180 177 178 183 186 190 194 199
325 326 328 327 325 320 317 308 66 98 179 191 220 215 245 214 302 283 93 306 266 219 225 255 357 272 278 260 253 251 290 99 82 128 143 196 158 201 172 179 162 154 144 132 113 152 185 214 211 219 130 334 48 197 215 188 164 167 180 155 147 124 100 93 100 161 168 73 99 129 162 165 161 165 164 180 187 193 194 189 184 181 180 185 189 194 196 199
326 326 326 327 326 324 322 350 233 157 162 166 203 220 229 223 96 104 9 211 271 118 172 178 222 243 275 247 222 175 198 141 131 171 168 198 136 215 161 166 160 133 153 161 166 156 193 226 235 140 160 164 117 182 199 192 188 184 176 180 190 157 179 133 147 169 164 174 160 179 149 165 145 161 171 186 195 195 196 194 190 187 182 185 190 191 196 199
329 327 328 326 327 332 356 63 131 144 216 225 239 223 276 82 93 147 176 278 323 304 205 213 212 206 235 291 164 164 168 136 147 171 183 179 162 132 162 157 141 151 144 150 158 179 158 42 73 144 154 191 171 158 173 199 194 167 208 206 170 167 190 172 150 151 141 159 168 126 161 168 183 167 183 190 188 183 179 186 196 196 198 190 192 197 198 195
330 328 328 328 328 335 45 142 162 229 157 175 243 250 254 250 185 194 237 294 185 260 97 128 222 236 211 104 134 210 122 105 286 141 161 162 122 165 128 159 171 147 127 125 130 190 204 163 128 138 133 159 179 186 199 195 222 168 218 224 203 177 154 121 135 140 164 185 192 158 185 203 184 187 186 177 184 191 188 191 196 198 201 191 194 200 200 201
329 326 329 327 328 340 128 172 203 144 191 250 168 165 213 242 177 176 208 47 62 342 236 129 203 106 220 151 148 273 201 128 135 169 161 189 130 137 142 147 278 157 137 145 162 205 179 117 181 166 172 167 203 229 161 208 226 231 178 197 171 173 146 142 155 167 169 207 177 194 212 183 169 195 192 185 188 193 184 197 198 194 192 193 199 200 200 200
330 326 325 326 329 330 201 309 105 194 285 132 119 38 260 238 149 148 267 57 112 359 331 357 216 109 198 130 182 201 178 124 86 106 170 189 186 320 171 114 132 64 137 122 120 188 145 152 128 140 154 179 184 225 182 193 204 218 17 181 163 162 158 161 152 192 56 73 122 169 163 243 173 198 191 185 191 197 198 198 199 193 190 198 200 200 199 200
328 324 321 318 327 297 285 332 292 214 253 56 74 15 315 107 132 357 277 121 135 312 340 286 358 172 223 78 161 280 50 116 153 158 277 146 202 88 228 168 172 147 149 164 202 98 180 154 175 154 199 202 219 213 145 194 214 358 336 177 168 169 163 157 162 169 103 177 165 183 149 263 86 139 167 183 196 203 210 204 200 193 192 199 198 201 199 201
325 322 319 319 318 269 236 249 330 246 18 344 10 355 73 143 167 101 227 66 63 305 121 111 41 159 11 132 103 354 147 360 60 94 322 113 17 204 167 177 165 126 46 212 210 119 249 195 185 184 192 226 201 182 171 176 190 65 122 104 105 134 146 169 177 163 138 149 206 186 193 193 51 155 180 189 206 207 207 208 203 195 192 195 198 199 199 198
322 319 319 313 305 175 193 222 237 250 341 4 0 9 137 160 216 214 70 63 352 49 280 286 295 247 297 146 123 27 148 45 30 99 67 164 56 72 43 90 135 142 149 49 272 191 55 12 90 185 211 230 214 117 187 171 104 131 116 110 100 83 80 72 72 151 116 229 259 177 192 224 197 199 190 184 211 196 206 205 205 195 192 195 196 196 192 190
321 312 308 292 243 209 154 253 241 225 249 12 27 121 158 54 206 65 50 7 277 274 298 354 8 326 155 178 174 39 65 20 95 145 131 184 107 56 107 122 72 105 87 89 219 248 269 121 192 213 217 69 118 99 58 150 141 142 134 127 118 99 110 101 56 353 215 216 5 182 177 186 224 176 205 211 127 189 193 203 201 194 194 194 193 197 194 189
316 310 288 226 247 303 203 287 102 315 351 293 112 87 173 241 124 42 52 57 299 29 340 331 315 58 86 41 62 38 123 77 15 174 150 164 150 189 145 160 169 144 198 185 210 91 240 220 169 231 239 196 137 115 119 164 164 168 146 153 154 120 155 167 161 204 220 234 81 162 160 159 231 172 193 201 200 191 198 201 200 197 196 192 193 192 185 187
317 312 285 232 216 231 246 306 345 351 277 145 69 88 213 94 57 281 262 328 2 273 57 175 349 11 41 103 72 3 351 132 14 63 80 34 196 102 54 9 129 313 197 167 236 186 211 136 183 209 219 204 182 180 143 171 189 171 169 160 160 161 173 182 200 314 294 244 191 170 174 227 57 167 179 203 213 195 186 197 206 200 193 186 186 189 186 182
316 313 284 191 203 232 285 349 36 345 30 52 154 173 111 59 50 277 271 235 308 33 307 16 345 58 41 139 24 270 111 31 182 59 352 94 91 179 160 71 295 135 255 131 230 201 204 188 211 168 205 147 198 195 160 150 168 188 165 176 181 174 166 179 194 210 214 128 116 140 160 220 208 107 215 250 236 213 180 167 187 187 167 171 175 178 181 181
313 310 169 106 237 251 245 244 273 318 178 222 29 95 73 55 240 304 287 297 269 259 49 327 191 134 90 73 332 138 302 93 6 81 44 127 98 70 92 85 15 191 92 237 144 228 278 280 119 183 12 166 184 163 164 158 173 185 188 205 187 199 170 252 203 236 134 132 126 164 228 6 287 343 293 271 220 205 164 154 137 134 150 160 168 178 185 187
312 119 210 214 232 306 171 181 174 201 224 15 98 45 48 24 4 179 332 218 292 332 336 17 48 93 25 52 40 42 20 154 27 91 63 56 58 45 345 262 170 198 199 235 107 216 146 218 70 121 130 193 177 149 184 158 191 162 173 202 187 91 180 110 105 58 118 151 187 161 253 198 262 238 264 253 194 187 163 153 152 159 155 163 170 172 175 180
25 283 127 349 261 127 140 152 154 177 54 85 93 69 309 240 237 209 273 321 330 351 100 164 30 6 97 43 15 357 20 70 66 57 101 286 124 7 342 319 237 203 249 295 227 235 286 248 132 156 208 220 57 171 169 189 120 127 203 187 87 54 9 270 223 154 213 231 155 193 225 226 206 236 149 167 175 179 175 172 158 158 150 161 164 163 163 174
351 355 232 28 353 90 135 160 193 36 76 65 60 92 250 9 123 239 317 328 171 106 94 103 73 299 137 187 81 347 358 186 60 95 97 349 90 305 301 305 176 260 348 237 255 116 227 258 219 192 159 105 150 157 164 312 257 199 203 133 188 170 206 144 172 194 187 216 189 202 243 254 218 231 171 180 178 177 178 174 169 166 166 168 164 157 151 145
175 102 64 356 9 120 143 196 65 50 61 58 7 59 22 265 263 244 311 175 22 166 64 16 135 36 194 112 129 57 340 138 53 91 134 23 124 117 16 267 133 210 352 160 190 127 255 272 172 123 148 124 151 180 188 182 194 18 121 173 341 243 188 172 228 218 223 178 213 155 210 240 200 219 181 183 181 178 176 178 182 175 168 163 164 161 157 152
8 90 24 31 27 120 157 252 42 44 55 51 73 265 315 279 314 290 62 224 17 338 78 66 249 107 52 72 328 77 25 49 96 95 4 27 114 116 339 220 293 321 90 244 265 238 183 334 253 105 53 160 170 206 198 177 180 179 194 189 178 226 341 44 60 260 230 167 213 167 216 219 141 41 190 181 181 177 182 182 181 180 174 162 152 149 147 146
275 92 356 16 32 259 297 29 46 36 65 180 222 281 304 330 332 334 354 21 141 334 61 83 33 69 9 152 89 1 89 51 44 79 60 93 314 142 147 339 211 291 15 182 206 119 188 178 243 332 168 195 140 124 254 185 182 189 197 197 182 154 161 189 189 130 275 197 170 187 247 85 94 145 20 196 183 184 187 185 179 180 177 158 149 141 143 142
71 60 21 37 347 73 1 33 56 293 82 19 30 318 346 348 345 353 338 14 61 56 23 105 59 92 41 50 35 37 59 64 26 121 32 84 32 336 51 119 244 256 252 152 11 35 329 88 278 245 190 174 68 154 274 313 2 193 200 191 184 196 175 204 203 161 136 76 52 33 312 81 66 135 169 184 179 185 178 180 184 181 168 177 169 142 153 165
42 68 334 16 346 101 45 79 176 72 16 5 273 187 269 345 19 298 7 360 5 27 48 41 10 42 45 345 80 66 22 77 4 55 117 87 80 259 312 317 247 158 237 97 213 128 178 337 207 264 274 258 134 118 82 51 172 178 348 14 182 198 202 216 217 150 189 137 194 157 242 81 127 100 167 157 157 153 172 181 177 173 163 159 160 168 167 170
243 290 334 104 15 149 309 45 10 358 311 307 36 36 343 38 13 18 26 16 21 360 44 33 106 35 60 353 75 59 310 121 30 40 106 236 84 288 333 328 285 70 316 35 286 103 252 109 302 119 125 105 120 134 120 89 190 128 182 141 348 71 85 87 84 113 209 171 285 192 236 136 146 147 150 155 152 165 165 165 167 165 162 160 159 162 157 165
253 215 270 300 1 310 324 120 163 66 16 14 345 59 345 69 26 37 33 29 2 28 241 64 22 308 43 357 85 117 39 11 111 13 360 183 62 333 282 1 320 45 322 305 288 295 25 27 296 208 168 171 171 176 168 169 151 8 24 132 187 171 134 154 161 163 220 130 137 227 203 74 128 169 171 176 170 159 155 149 159 148 141 151 151 144 153 165
21 163 322 351 7 50 84 357 42 35 102 160 69 24 334 47 128 357 6 69 26 33 41 315 327 342 52 100 69 41 42 26 52 102 353 61 337 314 277 316 355 8 348 72 21 196 98 130 62 340 323 65 25 8 88 302 265 188 90 163 158 258 32 23 90 175 207 149 195 188 6 151 175 182 178 188 177 160 152 152 149 142 141 135 130 132 131 131
156 58 354 48 328 58 87 26 40 8 131 191 105 307 38 350 289 23 20 91 27 24 58 41 3 346 51 46 72 68 16 58 48 99 24 335 295 292 296 303 284 7 344 6 5 160 97 80 14 15 58 56 353 282 320 300 307 350 300 133 100 184 200 177 199 216 109 124 222 140 174 163 188 183 185 185 177 158 155 155 150 143 143 143 139 128 127 133
64 114 152 346 298 34 356 81 24 11 82 249 86 285 39 347 36 48 360 84 220 16 348 123 32 33 307 34 105 88 352 44 34 44 312 157 295 358 327 1 13 347 340 37 346 57 90 76 26 5 76 41 23 21 59 104 55 44 36 14 104 56 247 219 181 120 167 206 239 163 173 191 179 183 181 180 167 157 155 156 152 144 139 138 144 146 145 140
45 94 80 328 227 190 268 342 323 99 83 77 104 52 71 67 82 46 11 341 30 18 2 90 359 356 10 299 92 90 2 130 71 15 348 8 35 327 29 331 178 16 11 37 36 45 104 65 108 17 226 37 36 43 40 86 85 62 45 40 29 15 4 12 79 139 54 20 337 164 175 189 167 173 175 171 160 152 150 148 141 140 143 144 150 158 154 144
27 8 94 1 46 107 319 315 93 109 111 326 119 56 70 330 125 188 45 17 73 48 333 76 35 35 41 64 72 81 50 48 50 61 348 273 187 328 71 286 309 332 17 28 350 39 305 117 225 162 157 35 13 44 60 44 88 76 49 37 29 22 63 44 98 108 89 54 85 141 156 161 159 164 168 159 161 154 151 157 155 145 143 144 149 153 146 138
359 57 327 309 120 351 332 4 62 51 128 116 96 168 109 36 92 87 80 324 16 65 61 110 125 94 24 54 67 71 285 302 228 342 288 233 42 356 351 51 215 330 353 14 8 340 348 140 169 172 141 53 13 356 32 147 286 60 36 12 4 359 60 98 143 64 247 133 131 130 160 190 162 171 167 158 164 163 163 165 159 155 151 148 151 143 130 131
219 147 246 278 142 347 348 113 77 156 134 224 119 148 150 177 143 235 94 24 64 41 18 124 179 53 41 45 42 8 349 212 336 326 301 123 56 69 44 41 9 332 347 20 292 10 6 346 335 29 157 74 353 325 355 353 200 156 18 348 331 311 276 285 278 184 242 147 145 179 228 84 156 168 170 168 171 168 167 167 163 159 155 150 146 140 128 125